Flag for United Kingdom Weather past 2 weeks in Cardiff, Wales, United Kingdom

Now
52 °F

Low clouds.


Feels Like: 47 °F
Forecast: N/A
Wind: 16 mph from West

Location: Wales Airport

Current Time: Dec 21, 2014 at 9:47:20 PM

Latest Report: Dec 21, 2014 at 8:50 PM


Visibility: N/A

Pressure: 30.18 "Hg

Humidity: 94%

Dew point: 50 °F

Location of CardiffLocation

Historic Weather in Cardiff — Graph

°F

Cardiff temperature yesterday

Maximum temperature yesterday: 48 °F (at 2:20 AM)
Minimum temperature yesterday: 43 °F (at 7:20 PM)
Average temperature yesterday: 46 °F

Past Weeks' High & Low Weather Summary

 TemperatureHumidityPressure
High54 °F (Dec 9, 6:20 PM)100% (Dec 6, 11:50 PM)30.45 "Hg (Dec 6, 11:50 PM)
Low30 °F (Dec 13, 8:50 AM)58% (Dec 10, 12:20 PM)29.27 "Hg (Dec 12, 2:20 AM)
Average46 °F87%29.97 "Hg
* Reported Dec 6 8:20 PM — Dec 21 8:20 PM, Cardiff, Weather by CustomWeather, © 2014

Note: Actual official high and low records may vary slightly from our data, if they occured in-between our weather recording intervals... More about our weather records

Advertising

Cardiff weather history for previous 24 hours

 ConditionsComfort  
Time TempWeatherWind HumidityBarometerVisibility
8:20 PM
Dec 21
52 °FLow clouds.16 mph94%30.18 "HgN/A
7:50 PM52 °FLow clouds.20 mph94%30.21 "HgN/A
7:20 PM52 °FLow clouds.17 mph94%30.21 "HgN/A
6:50 PM52 °FLow clouds.20 mph94%30.21 "HgN/A
6:20 PM52 °FLow clouds.20 mph94%30.21 "HgN/A
5:50 PM52 °FLow clouds.20 mph94%30.21 "HgN/A
5:20 PM52 °FLow clouds.20 mph94%30.21 "HgN/A
4:50 PM50 °FLow clouds.18 mph100%30.21 "HgN/A
4:20 PM50 °FLight rain. Low clouds.20 mph100%30.24 "Hg4 mi
3:50 PM50 °FMostly cloudy.18 mph100%30.24 "HgN/A
3:20 PM50 °FLow clouds.20 mph100%30.24 "HgN/A
2:50 PM50 °FLow clouds.21 mph100%30.24 "HgN/A
2:20 PM50 °FMostly cloudy.20 mph100%30.27 "HgN/A
1:50 PM50 °FMostly cloudy.18 mph94%30.27 "HgN/A
1:20 PM50 °FMostly cloudy.17 mph94%30.27 "HgN/A
12:50 PM50 °FMostly cloudy.18 mph94%30.30 "HgN/A
12:20 PM50 °FMostly cloudy.17 mph94%30.33 "HgN/A
11:20 AM48 °FMostly cloudy.17 mph94%30.33 "HgN/A
10:50 AM48 °FMostly cloudy.20 mph94%30.33 "HgN/A
10:20 AM48 °FMostly cloudy.18 mph94%30.33 "HgN/A
9:50 AM48 °FMostly cloudy.18 mph94%30.33 "HgN/A
9:20 AM48 °FCloudy.16 mph94%30.33 "HgN/A
8:50 AM46 °FMostly cloudy.17 mph100%30.33 "HgN/A
8:20 AM46 °FMostly cloudy.14 mph100%30.36 "HgN/A
7:50 AM46 °FMostly cloudy.15 mph100%30.36 "HgN/A
7:20 AM46 °FOvercast.17 mph93%30.36 "HgN/A
6:50 AM46 °FMostly cloudy.18 mph93%30.36 "HgN/A
6:20 AM46 °FPassing clouds.18 mph93%30.36 "HgN/A
5:50 AM46 °FMostly cloudy.17 mph93%30.36 "HgN/A
5:20 AM46 °FPassing clouds.20 mph93%30.36 "HgN/A
4:50 AM46 °FMostly cloudy.20 mph93%30.39 "Hg5 mi
4:20 AM46 °FLight rain. Mostly cloudy.17 mph93%30.39 "Hg6 mi
3:50 AM46 °FPartly cloudy.16 mph93%30.39 "HgN/A
3:20 AM46 °FPassing clouds.15 mph93%30.39 "HgN/A
2:50 AM46 °FMostly cloudy.14 mph93%30.42 "HgN/A
2:20 AM46 °FPassing clouds.15 mph93%30.42 "HgN/A
1:50 AM46 °FPartly cloudy.15 mph93%30.42 "HgN/A
1:20 AM46 °FMostly cloudy.16 mph93%30.42 "HgN/A
12:50 AM46 °FPassing clouds.13 mph93%30.45 "HgN/A
12:20 AM46 °FMostly cloudy.12 mph93%30.45 "HgN/A
11:50 PM
Dec 20
46 °FPassing clouds.13 mph93%30.45 "HgN/A
11:20 PM46 °FPartly cloudy.12 mph93%30.45 "HgN/A
10:50 PM45 °FPassing clouds.13 mph87%30.45 "HgN/A
10:20 PM45 °FPassing clouds.8 mph93%30.45 "HgN/A
9:50 PM45 °FPassing clouds.8 mph93%30.45 "HgN/A
9:20 PM46 °FPassing clouds.17 mph93%30.45 "HgN/A
Weather by CustomWeather, © 2014

See weather overviewHow to use our weather pages